[[{"header":{"parameterUnit":"m.s-1","parameterCategory":1,"la1":30.2992,"la2":30.254,"lo1":-89.0895,"lo2":-89.0443,"dy":0.0025,"dx":0.0025,"nx":19,"ny":19,"refTime":"2026-05-12T03:00:00:Z","depth":0,"parameterNumber":2,"parameterNumberName":"U-component_of_WINDS"},"data":[0,0,0,-1.3689,-1.3688,-1.3648,-1.3648,-1.3593,-1.3593,0,0,0,0,0,0,0,0,0,0,0,-1.3702,-1.3702,-1.3689,-1.3688,-1.3648,-1.3648,-1.3593,-1.3593,0,0,0,0,0,0,0,0,0,0,0,-1.3702,-1.3702,-1.3701,-1.3688,-1.3648,-1.3648,-1.3593,-1.3624,0,0,0,0,0,0,0,0,0,0,-1.3663,-1.3678,-1.3702,-1.3701,-1.3687,-1.3648,-1.3648,-1.3625,-1.3622,-1.3611,0,-1.3605,0,-1.3598,-1.3589,-1.3589,0,0,0,-1.3686,-1.368,-1.3669,-1.3701,-1.3687,-1.3648,-1.3665,-1.3624,-1.362,-1.3606,-1.3604,-1.3602,-1.3597,-1.3589,-1.3589,-1.3538,-1.3538,0,0,-1.3688,-1.3695,-1.3671,-1.3666,-1.3676,-1.3667,-1.3664,-1.3621,-1.3618,-1.3604,-1.36,-1.3596,-1.3589,-1.3588,-1.3538,-1.3538,0,0,0,-1.3696,-1.3696,-1.3686,-1.3669,-1.3662,-1.3666,-1.3663,-1.3619,-1.3616,-1.36,-1.3596,-1.3588,-1.3588,-1.3539,-1.3538,-1.3539,0,0,0,-1.3697,-1.3701,-1.3687,-1.369,-1.3663,-1.3641,-1.3662,-1.3619,-1.3613,-1.3596,-1.3588,-1.3587,-1.3539,-1.3538,-1.3539,-1.3538,0,0,0,-1.3704,-1.3702,-1.3697,-1.3691,-1.3674,-1.3642,-1.3635,-1.3617,-1.3611,-1.3589,-1.3587,-1.3539,-1.3539,-1.354,-1.3538,-1.3526,0,0,0,-1.3713,-1.3697,-1.3697,-1.3677,-1.3675,-1.3643,-1.3635,-1.3611,-1.3592,-1.3588,-1.3539,-1.3538,-1.354,-1.3538,-1.3526,-1.3517,-1.3514,0,0,-1.3696,-1.3695,-1.3683,-1.3682,-1.3653,-1.3649,-1.3618,-1.3593,-1.3583,-1.3553,-1.3551,-1.3539,-1.3538,-1.3526,-1.3496,-1.3493,0,0,0,-1.368,-1.3671,-1.3662,-1.3646,-1.3628,-1.3612,-1.3591,-1.3581,-1.3556,-1.357,-1.3531,-1.3531,-1.3523,-1.3518,-1.3516,-1.3508,-1.3537,-1.3537,-1.3537,-1.3666,-1.3656,-1.3635,-1.362,-1.3604,-1.3583,-1.3568,-1.355,-1.3544,-1.3534,-1.3525,-1.3509,-1.3503,-1.3502,-1.3494,-1.352,-1.352,-1.352,-1.352,-1.3641,-1.3626,-1.3619,-1.3596,-1.3584,-1.3562,-1.354,-1.3536,-1.3512,-1.3515,-1.3508,-1.3512,-1.35,-1.3492,-1.352,-1.352,-1.352,-1.352,-1.352,-1.363,-1.3622,-1.3612,-1.3587,-1.3568,-1.3552,-1.353,-1.3519,-1.3508,-1.3501,-1.3489,-1.3489,-1.3487,-1.3497,-1.3497,-1.3497,-1.3496,-1.3496,-1.3496,-1.3623,-1.3612,-1.3597,-1.3577,-1.3564,-1.3546,-1.3523,-1.3509,-1.3491,-1.3484,-1.3484,-1.3477,-1.3501,-1.3508,-1.3495,-1.3496,-1.3496,-1.3496,-1.3496,-1.36,-1.3604,-1.3581,-1.3568,-1.3542,-1.3523,-1.351,-1.3482,-1.3468,-1.3457,-1.3451,-1.3472,-1.3469,-1.347,-1.3475,-1.3455,-1.3455,-1.3455,-1.3455,-1.3591,-1.3589,-1.3562,-1.3543,-1.3523,-1.3509,-1.3478,-1.3459,-1.3439,-1.3429,-1.343,-1.3435,-1.3437,-1.3433,-1.3435,-1.344,-1.3411,-1.3411,-1.3411,-1.3576,-1.3572,-1.355,-1.3534,-1.3512,-1.3492,-1.3463,-1.3437,-1.3415,-1.3409,-1.342,-1.3422,-1.3431,-1.3435,-1.3429,-1.3433,-1.344,0,0]},{"header":{"parameterUnit":"m.s-1","parameterCategory":1,"la1":30.2992,"la2":30.254,"lo1":-89.0895,"lo2":-89.0443,"dy":0.0025,"dx":0.0025,"nx":19,"ny":19,"refTime":"2026-05-12T03:00:00:Z","depth":0,"parameterNumber":3,"parameterNumberName":"V-component_of_WINDS"},"data":[0,0,0,-2.9793,-2.9795,-2.9936,-2.9937,-3.0096,-3.0097,0,0,0,0,0,0,0,0,0,0,0,-2.9741,-2.9741,-2.9792,-2.9796,-2.9936,-2.9937,-3.0095,-3.0097,0,0,0,0,0,0,0,0,0,0,0,-2.974,-2.9741,-2.9742,-2.9796,-2.9936,-2.9937,-3.0095,-2.9996,0,0,0,0,0,0,0,0,0,0,-2.9862,-2.9805,-2.9741,-2.9742,-2.9797,-2.9936,-2.9937,-2.9991,-3.0002,-3.0024,0,-3.0043,0,-3.0072,-3.0106,-3.0107,0,0,0,-2.9802,-2.9796,-2.9844,-2.9742,-2.9798,-2.9936,-2.9875,-2.9998,-3.001,-3.0038,-3.0045,-3.0052,-3.0075,-3.0107,-3.0108,-3.0217,-3.0217,0,0,-2.9795,-2.976,-2.9836,-2.9851,-2.9831,-2.987,-2.9879,-3.0005,-3.001,-3.0046,-3.0056,-3.0078,-3.0108,-3.0109,-3.0217,-3.0217,0,0,0,-2.9768,-2.9754,-2.9799,-2.9844,-2.9871,-2.9874,-2.9884,-3.0004,-3.0022,-3.0058,-3.008,-3.0109,-3.0111,-3.0217,-3.0217,-3.0194,0,0,0,-2.9763,-2.9739,-2.9795,-2.9775,-2.9869,-2.994,-2.988,-3.0013,-3.0029,-3.0079,-3.0109,-3.0112,-3.0217,-3.0217,-3.0194,-3.0188,0,0,0,-2.9735,-2.9735,-2.9753,-2.9773,-2.9833,-2.9939,-2.9964,-3.0017,-3.0042,-3.0107,-3.0113,-3.0217,-3.0217,-3.0194,-3.0188,-3.0206,0,0,0,-2.9694,-2.9728,-2.9751,-2.9798,-2.9831,-2.9924,-2.9964,-3.0034,-3.0087,-3.011,-3.0217,-3.0217,-3.0194,-3.0189,-3.0206,-3.0215,-3.0216,0,0,-2.9718,-2.973,-2.976,-2.9785,-2.9866,-2.9906,-2.9982,-3.0062,-3.0099,-3.0175,-3.0178,-3.0194,-3.0188,-3.0206,-3.0232,-3.0233,0,0,0,-2.9756,-2.9777,-2.9806,-2.9857,-2.9921,-2.9975,-3.0048,-3.0077,-3.0144,-3.0132,-3.0207,-3.0204,-3.0216,-3.0222,-3.0222,-3.0234,-3.0218,-3.0218,-3.0218,-2.9739,-2.9786,-2.984,-2.9904,-2.9952,-3.0028,-3.007,-3.0123,-3.0155,-3.0172,-3.0194,-3.0205,-3.021,-3.0211,-3.0223,-3.0203,-3.0203,-3.0203,-3.0203,-2.9778,-2.9815,-2.9859,-2.9926,-2.9975,-3.0031,-3.0105,-3.0126,-3.0183,-3.0191,-3.0204,-3.0208,-3.021,-3.0222,-3.0202,-3.0202,-3.0202,-3.0202,-3.0202,-2.9771,-2.9798,-2.9835,-2.9914,-2.9968,-3.0031,-3.0086,-3.0128,-3.0167,-3.018,-3.0208,-3.0209,-3.0214,-3.0191,-3.0191,-3.0191,-3.0191,-3.0191,-3.0191,-2.9749,-2.9793,-2.9835,-2.9907,-2.9945,-3.0,-3.0077,-3.0115,-3.0167,-3.0193,-3.0194,-3.0223,-3.0202,-3.0195,-3.0192,-3.0192,-3.0192,-3.0192,-3.0192,-2.977,-2.9773,-2.9838,-2.9876,-2.9964,-3.0015,-3.0069,-3.0142,-3.0179,-3.0204,-3.0232,-3.021,-3.0224,-3.0224,-3.0219,-3.0222,-3.0222,-3.0222,-3.0222,-2.9764,-2.9777,-2.9853,-2.9912,-2.9974,-3.003,-3.0099,-3.0158,-3.0219,-3.0245,-3.0251,-3.0248,-3.0246,-3.0261,-3.0261,-3.0256,-3.0269,-3.0269,-3.0269,-2.9779,-2.98,-2.9852,-2.9915,-2.9987,-3.0046,-3.0113,-3.0176,-3.0246,-3.0272,-3.0266,-3.0264,-3.0259,-3.0255,-3.028,-3.0278,-3.0271,0,0]}]]